Location: Gorze? G�rny
(49.8500°N, 19.5000°E)
Time: 05:22:52
(UTC+00:00)

Helios 1B rocket - Pass Details

Date: 13 May 2021
Orbit: 573 x 583 km, 98.2° (Epoch: 20 June)

Event Time Altitude Azimuth Distance (km) Brightness Sun altitude
Rises 23:39:24 0° 24° (NNE) 2,819 7.5 -20.2°
Reaches altitude 10° 23:41:51 10° 37° (NE) 1,912 6.1 -20.1°
Maximum altitude 23:45:21 26° 95° (E) 1,166 4.1 -19.9°
Enters shadow 23:46:53 21° 129° (SE) 1,340 4.1 -19.9°
